Hourly Data Report for October 21, 2021

QUALICUM BEACH AIRPORT
BRITISH COLUMBIA
Current Station Operator: ECCC - MSC

49°20'14.000" N
124°23'38.000" W
58.20 m
1026562
71766
VOQ

Download Data

Hourly Data (October 2021)
Hourly Data Report for October 21, 2021
TIME
LST
Temp Definition
°C
Dew Point Definition
°C
Rel Hum Definition
%
Precip. Amount Definition
mm

Wind Dir Definition
10's deg

Wind Spd Definition
km/h
Visibility Definition
km
Stn Press Definition
kPa
Hmdx Definition


Wind Chill Definition


Weather Definition


00:00 11.2 8.5 84 0.0 11 12   100.58     LegendNANA
01:00 11.4 8.3 81 0.0 12 18   100.52     LegendNANA
02:00 11.7 8.0 78 0.0 13 22   100.50     LegendNANA
03:00 11.7 7.6 76 0.0 13 18   100.43     LegendNANA
04:00 12.1 7.0 71 0.0 15 20   100.39     LegendNANA
05:00 12.3 6.5 68 0.0 15 16   100.39     LegendNANA
06:00 12.1 6.3 67 0.0 14 17   100.34     LegendNANA
07:00 12.5 5.8 64 0.0 14 11   100.28     LegendNANA
08:00 13.0 5.2 59 0.0 14 27   100.16     LegendNANA
09:00 13.4 5.1 57 0.0 15 33   100.07     LegendNANA
10:00 14.2 4.8 53 0.0 14 39   99.86     LegendNANA
11:00 14.8 4.6 51 0.1 14 35   99.91     LegendNANA
12:00 14.5 5.2 54 0.0 14 27   99.86     LegendNANA
13:00 13.6 6.6 62 0.0 13 29   99.74     LegendNANA
14:00 13.4 7.6 68 0.1 15 27   99.66     LegendNANA
15:00 12.4 9.2 81 0.2 15 14   99.72     LegendNANA
16:00 12.8 9.4 80 0.4 17 17   99.71     LegendNANA
17:00 12.8 9.5 81 0.0 13 17   99.62     LegendNANA
18:00 13.4 9.1 75 0.0 11 16   99.51     LegendNANA
19:00 12.4 9.9 85 0.0 17 5   99.65     LegendNANA
20:00 13.0 9.6 80 0.0 16 10   99.73     LegendNANA
21:00 13.4 7.7 68 0.0 16 14   99.78     LegendNANA
22:00 12.6 9.0 79 0.0 11 10   99.82     LegendNANA
23:00 11.4 9.9 91 0.0 11 18   99.78     LegendNANA

Notes on Data Quality.

Legend

  • E = Estimated
  • M = Missing
  • NA = Not Available*
  • [empty] = Indicates an unobserved value
Date modified: